Time,TemperatureF,DewpointF,PressureIn,WindDirection,WindDirectionDegrees,WindSpeedMPH,WindSpeedGustMPH,Humidity,HourlyPrecipIn,Conditions,Clouds,dailyrainin,SoftwareType,DateUTC
2013-06-11 00:04:00,65.5,64.9,29.97,SW,225,0.0,-999.0,98,-99.99,,,0.00,Acu-Link.com,2013-06-11 05:04:00,
2013-06-11 00:20:00,65.5,13.4,29.98,South,180,0.0,-999.0,13,-99.99,,,0.00,Acu-Link.com,2013-06-11 05:20:00,
2013-06-11 00:35:00,64.9,27.2,29.98,South,180,0.0,-999.0,24,-99.99,,,0.00,Acu-Link.com,2013-06-11 05:35:00,
2013-06-11 00:50:00,64.6,64.0,29.98,South,180,0.0,-999.0,98,-99.99,,,0.00,Acu-Link.com,2013-06-11 05:50:00,
2013-06-11 01:05:00,64.2,63.6,29.98,SW,225,0.0,-999.0,98,-99.99,,,0.00,Acu-Link.com,2013-06-11 06:05:00,
2013-06-11 01:20:00,65.1,64.5,30.00,WSW,247,0.0,-999.0,98,-99.99,,,0.00,Acu-Link.com,2013-06-11 06:20:00,
2013-06-11 01:35:00,65.7,65.1,30.01,SSW,202,1.1,-999.0,98,-99.99,,,0.00,Acu-Link.com,2013-06-11 06:35:00,
2013-06-11 01:50:00,66.2,5.7,30.01,SW,225,0.0,-999.0,9,-99.99,,,0.00,Acu-Link.com,2013-06-11 06:50:00,
2013-06-11 02:05:00,66.0,18.5,30.00,SSW,202,0.0,-999.0,16,-99.99,,,0.00,Acu-Link.com,2013-06-11 07:05:00,
2013-06-11 02:20:00,66.0,5.6,30.00,SSW,202,0.0,-999.0,9,-99.99,,,0.00,Acu-Link.com,2013-06-11 07:20:00,
2013-06-11 02:36:00,66.0,65.4,30.00,SW,225,1.1,-999.0,98,-99.99,,,0.00,Acu-Link.com,2013-06-11 07:36:00,
2013-06-11 02:51:00,65.7,65.1,30.00,SSW,202,0.0,-999.0,98,-99.99,,,0.00,Acu-Link.com,2013-06-11 07:51:00,
2013-06-11 03:06:00,65.5,64.9,30.00,South,180,0.0,-999.0,98,-99.99,,,0.00,Acu-Link.com,2013-06-11 08:06:00,
2013-06-11 03:22:00,65.3,64.7,29.99,South,180,0.0,-999.0,98,-99.99,,,0.00,Acu-Link.com,2013-06-11 08:22:00,
2013-06-11 03:37:00,65.1,64.5,29.99,SSW,202,0.0,-999.0,98,-99.99,,,0.00,Acu-Link.com,2013-06-11 08:37:00,
2013-06-11 03:52:00,64.2,63.6,29.98,SSW,202,0.0,-999.0,98,-99.99,,,0.00,Acu-Link.com,2013-06-11 08:52:00,
2013-06-11 04:07:00,66.0,65.4,29.98,SW,225,1.1,-999.0,98,-99.99,,,0.00,Acu-Link.com,2013-06-11 09:07:00,
2013-06-11 04:22:00,66.9,66.3,29.98,SW,225,0.0,-999.0,98,-99.99,,,0.00,Acu-Link.com,2013-06-11 09:22:00,
2013-06-11 04:37:00,66.9,66.3,29.98,SW,225,0.0,-999.0,98,-99.99,,,0.00,Acu-Link.com,2013-06-11 09:37:00,
2013-06-11 04:52:00,67.3,66.7,29.99,SW,225,0.0,-999.0,98,-99.99,,,0.00,Acu-Link.com,2013-06-11 09:52:00,
2013-06-11 05:07:00,66.7,66.1,29.99,South,180,0.0,-999.0,98,-99.99,,,0.00,Acu-Link.com,2013-06-11 10:07:00,
2013-06-11 05:22:00,66.7,66.1,29.98,South,180,0.0,-999.0,98,-99.99,,,0.00,Acu-Link.com,2013-06-11 10:22:00,
2013-06-11 05:37:00,67.6,67.0,29.98,South,180,0.0,-999.0,98,-99.99,,,0.00,Acu-Link.com,2013-06-11 10:37:00,
2013-06-11 05:53:00,68.7,68.1,29.98,SSE,157,0.0,-999.0,98,-99.99,,,0.00,Acu-Link.com,2013-06-11 10:53:00,
2013-06-11 06:08:00,68.5,67.9,29.99,SSE,157,0.0,-999.0,98,-99.99,,,0.00,Acu-Link.com,2013-06-11 11:08:00,
2013-06-11 06:23:00,68.2,67.6,29.98,North,0,0.0,-999.0,98,-99.99,,,0.00,Acu-Link.com,2013-06-11 11:23:00,
2013-06-11 06:38:00,68.0,67.4,29.98,SSW,202,0.0,-999.0,98,-99.99,,,0.00,Acu-Link.com,2013-06-11 11:38:00,
2013-06-11 07:08:00,69.8,50.3,29.99,South,180,1.7,-999.0,50,-99.99,,,0.00,Acu-Link.com,2013-06-11 12:08:00,
2013-06-11 07:23:00,71.2,57.9,29.98,SSE,157,0.0,-999.0,63,-99.99,,,0.00,Acu-Link.com,2013-06-11 12:23:00,
2013-06-11 07:38:00,72.0,64.0,29.98,SSW,202,1.7,-999.0,76,-99.99,,,0.00,Acu-Link.com,2013-06-11 12:38:00,
2013-06-11 07:53:00,75.4,69.2,29.98,South,180,0.0,-999.0,81,-99.99,,,0.00,Acu-Link.com,2013-06-11 12:53:00,
2013-06-11 08:09:00,77.9,71.2,29.99,SSE,157,2.7,-999.0,80,-99.99,,,0.00,Acu-Link.com,2013-06-11 13:09:00,
2013-06-11 08:24:00,77.9,70.8,29.97,SW,225,1.7,-999.0,79,-99.99,,,0.00,Acu-Link.com,2013-06-11 13:24:00,
2013-06-11 08:39:00,77.7,69.9,29.98,South,180,2.2,-999.0,77,-99.99,,,0.00,Acu-Link.com,2013-06-11 13:39:00,
2013-06-11 08:54:00,75.2,69.0,29.98,South,180,2.2,-999.0,81,-99.99,,,0.00,Acu-Link.com,2013-06-11 13:54:00,
2013-06-11 09:09:00,75.7,69.4,29.98,SSE,157,1.7,-999.0,81,-99.99,,,0.00,Acu-Link.com,2013-06-11 14:09:00,
2013-06-11 09:24:00,75.9,70.0,29.97,SSW,202,2.2,-999.0,82,-99.99,,,0.00,Acu-Link.com,2013-06-11 14:24:00,
2013-06-11 09:39:00,78.3,70.9,29.97,South,180,0.0,-999.0,78,-99.99,,,0.00,Acu-Link.com,2013-06-11 14:39:00,
2013-06-11 09:54:00,77.9,70.5,29.97,NE,45,1.1,-999.0,78,-99.99,,,0.00,Acu-Link.com,2013-06-11 14:54:00,
2013-06-11 10:09:00,78.3,70.5,29.97,SSE,157,2.7,-999.0,77,-99.99,,,0.00,Acu-Link.com,2013-06-11 15:09:00,
2013-06-11 10:25:00,77.5,70.5,29.96,SSE,157,2.7,-999.0,79,-99.99,,,0.00,Acu-Link.com,2013-06-11 15:25:00,
2013-06-11 10:40:00,78.6,70.8,29.95,ESE,112,2.2,-999.0,77,-99.99,,,0.00,Acu-Link.com,2013-06-11 15:40:00,
2013-06-11 10:55:00,78.1,70.7,29.96,ESE,112,2.2,-999.0,78,-99.99,,,0.00,Acu-Link.com,2013-06-11 15:55:00,
2013-06-11 11:10:00,79.9,71.2,29.96,SE,135,4.7,-999.0,75,-99.99,,,0.00,Acu-Link.com,2013-06-11 16:10:00,
2013-06-11 11:25:00,80.6,71.5,29.96,SSE,157,2.7,-999.0,74,-99.99,,,0.00,Acu-Link.com,2013-06-11 16:25:00,
2013-06-11 11:40:00,82.9,72.9,29.95,SSE,157,2.7,-999.0,72,-99.99,,,0.00,Acu-Link.com,2013-06-11 16:40:00,
2013-06-11 11:55:00,85.3,73.1,29.93,SE,135,4.2,-999.0,67,-99.99,,,0.00,Acu-Link.com,2013-06-11 16:55:00,
2013-06-11 12:10:00,85.8,73.1,29.95,South,180,3.2,-999.0,66,-99.99,,,0.00,Acu-Link.com,2013-06-11 17:10:00,
2013-06-11 12:25:00,88.2,73.5,29.94,SE,135,4.7,-999.0,62,-99.99,,,0.00,Acu-Link.com,2013-06-11 17:25:00,
2013-06-11 12:41:00,87.1,71.5,29.93,East,90,2.7,-999.0,60,-99.99,,,0.00,Acu-Link.com,2013-06-11 17:41:00,
2013-06-11 12:56:00,84.9,74.0,29.94,NE,45,4.7,-999.0,70,-99.99,,,0.00,Acu-Link.com,2013-06-11 17:56:00,
2013-06-11 13:11:00,86.4,73.2,29.94,ESE,112,5.8,-999.0,65,-99.99,,,0.00,Acu-Link.com,2013-06-11 18:11:00,
2013-06-11 13:56:00,87.8,73.1,29.92,East,90,2.7,-999.0,62,-99.99,,,0.00,Acu-Link.com,2013-06-11 18:56:00,
2013-06-11 14:11:00,87.6,72.5,29.91,ESE,112,6.8,-999.0,61,-99.99,,,0.00,Acu-Link.com,2013-06-11 19:11:00,
2013-06-11 14:26:00,88.3,70.1,29.91,SSW,202,3.2,-999.0,55,-99.99,,,0.00,Acu-Link.com,2013-06-11 19:26:00,
2013-06-11 14:41:00,89.4,71.1,29.91,SSW,202,3.2,-999.0,55,-99.99,,,0.00,Acu-Link.com,2013-06-11 19:41:00,
2013-06-11 14:57:00,90.9,71.4,29.92,SE,135,3.2,-999.0,53,-99.99,,,0.00,Acu-Link.com,2013-06-11 19:57:00,
2013-06-11 15:12:00,92.5,71.1,29.92,NE,45,7.3,-999.0,50,-99.99,,,0.00,Acu-Link.com,2013-06-11 20:12:00,
2013-06-11 15:27:00,93.4,71.9,29.91,South,180,2.7,-999.0,50,-99.99,,,0.00,Acu-Link.com,2013-06-11 20:27:00,
2013-06-11 15:42:00,95.4,72.5,29.91,South,180,3.7,-999.0,48,-99.99,,,0.00,Acu-Link.com,2013-06-11 20:42:00,
2013-06-11 15:57:00,93.0,73.3,29.92,South,180,3.2,-999.0,53,-99.99,,,0.00,Acu-Link.com,2013-06-11 20:57:00,
2013-06-11 16:12:00,93.2,73.5,29.91,SE,135,3.2,-999.0,53,-99.99,,,0.00,Acu-Link.com,2013-06-11 21:12:00,
2013-06-11 16:27:00,93.6,73.3,29.93,South,180,2.7,-999.0,52,-99.99,,,0.00,Acu-Link.com,2013-06-11 21:27:00,
2013-06-11 16:42:00,94.1,73.2,29.92,SW,225,3.7,-999.0,51,-99.99,,,0.00,Acu-Link.com,2013-06-11 21:42:00,
2013-06-11 16:57:00,94.8,73.8,29.92,South,180,1.7,-999.0,51,-99.99,,,0.00,Acu-Link.com,2013-06-11 21:57:00,
2013-06-11 17:13:00,92.5,73.4,29.92,South,180,1.7,-999.0,54,-99.99,,,0.00,Acu-Link.com,2013-06-11 22:13:00,
2013-06-11 17:28:00,91.9,72.8,29.92,SSW,202,1.1,-999.0,54,-99.99,,,0.00,Acu-Link.com,2013-06-11 22:28:00,
2013-06-11 17:43:00,90.7,73.9,29.92,SSW,202,1.7,-999.0,58,-99.99,,,0.00,Acu-Link.com,2013-06-11 22:43:00,
2013-06-11 17:58:00,91.9,73.4,29.91,South,180,1.7,-999.0,55,-99.99,,,0.00,Acu-Link.com,2013-06-11 22:58:00,
2013-06-11 18:13:00,90.5,73.1,29.90,South,180,0.0,-999.0,57,-99.99,,,0.00,Acu-Link.com,2013-06-11 23:13:00,
2013-06-11 18:28:00,90.9,74.0,29.90,SSE,157,0.0,-999.0,58,-99.99,,,0.00,Acu-Link.com,2013-06-11 23:28:00,
2013-06-11 18:43:00,90.5,73.7,29.90,SSW,202,0.0,-999.0,58,-99.99,,,0.00,Acu-Link.com,2013-06-11 23:43:00,
2013-06-11 18:58:00,89.8,74.0,29.91,SSW,202,0.0,-999.0,60,-99.99,,,0.00,Acu-Link.com,2013-06-11 23:58:00,
2013-06-11 19:13:00,88.9,74.6,29.90,SSE,157,0.0,-999.0,63,-99.99,,,0.00,Acu-Link.com,2013-06-12 00:13:00,
2013-06-11 19:29:00,88.2,74.5,29.90,South,180,0.0,-999.0,64,-99.99,,,0.00,Acu-Link.com,2013-06-12 00:29:00,
2013-06-11 19:44:00,86.7,74.4,29.90,SSE,157,0.0,-999.0,67,-99.99,,,0.00,Acu-Link.com,2013-06-12 00:44:00,
2013-06-11 19:59:00,86.2,73.9,29.90,South,180,0.0,-999.0,67,-99.99,,,0.00,Acu-Link.com,2013-06-12 00:59:00,
2013-06-11 20:14:00,85.1,74.6,29.89,SSW,202,0.0,-999.0,71,-99.99,,,0.00,Acu-Link.com,2013-06-12 01:14:00,
2013-06-11 20:29:00,83.5,73.9,29.89,South,180,0.0,-999.0,73,-99.99,,,0.00,Acu-Link.com,2013-06-12 01:29:00,
2013-06-11 20:44:00,82.6,74.6,29.89,NNE,22,0.0,-999.0,77,-99.99,,,0.00,Acu-Link.com,2013-06-12 01:44:00,
2013-06-11 20:59:00,81.0,74.6,29.90,NE,45,0.0,-999.0,81,-99.99,,,0.00,Acu-Link.com,2013-06-12 01:59:00,
2013-06-11 21:14:00,80.4,74.4,29.91,SE,135,0.0,-999.0,82,-99.99,,,0.00,Acu-Link.com,2013-06-12 02:14:00,
2013-06-11 21:29:00,79.9,74.3,29.92,East,90,0.0,-999.0,83,-99.99,,,0.00,Acu-Link.com,2013-06-12 02:29:00,
2013-06-11 21:44:00,79.3,73.7,29.91,SSW,202,0.0,-999.0,83,-99.99,,,0.00,Acu-Link.com,2013-06-12 02:44:00,
2013-06-11 22:00:00,78.8,73.5,29.91,South,180,1.1,-999.0,84,-99.99,,,0.00,Acu-Link.com,2013-06-12 03:00:00,
2013-06-11 22:15:00,78.4,73.2,29.92,SE,135,0.0,-999.0,84,-99.99,,,0.00,Acu-Link.com,2013-06-12 03:15:00,
2013-06-11 22:30:00,78.1,72.9,29.92,SSE,157,0.0,-999.0,84,-99.99,,,0.00,Acu-Link.com,2013-06-12 03:30:00,
2013-06-11 22:45:00,77.7,72.1,29.93,SE,135,0.0,-999.0,83,-99.99,,,0.00,Acu-Link.com,2013-06-12 03:45:00,
2013-06-11 23:00:00,77.2,71.3,29.93,SSW,202,0.0,-999.0,82,-99.99,,,0.00,Acu-Link.com,2013-06-12 04:00:00,
2013-06-11 23:15:00,76.6,70.0,29.93,SSW,202,0.0,-999.0,80,-99.99,,,0.00,Acu-Link.com,2013-06-12 04:15:00,
2013-06-11 23:31:00,76.1,65.2,29.93,ENE,67,1.7,-999.0,69,-99.99,,,0.00,Acu-Link.com,2013-06-12 04:31:00,
2013-06-11 23:46:00,75.7,63.5,29.92,NNE,22,0.0,-999.0,66,-99.99,,,0.00,Acu-Link.com,2013-06-12 04:46:00,